DW5174 Weather Reports


time (UTC)temp
C
wind
direction
speed
KPH
gust
KPH
rain 1hr
cm
rain 24hr
cm
rain mn
cm
humidity
%
barometer
mb
20260505195705 10 42 0.0 0.0 0.00 0.00 0.00 77 1017.4
20260505195205 11 42 0.0 0.0 0.00 0.00 0.00 76 1017.3
20260505194705 11 42 0.0 0.0 0.00 0.00 0.00 75 1017.3
20260505193705 11 42 0.0 0.0 0.00 0.00 0.00 74 1017.2
20260505193204 11 42 0.0 0.0 0.00 0.00 0.00 73 1017.1
20260505192206 11 42 0.0 4.8 0.00 0.00 0.00 73 1017.2
20260505191229 11 42 0.0 6.4 0.00 0.00 0.00 72 1017.2
20260505190705 11 42 0.0 11.3 0.00 0.00 0.00 70 1017.0
20260505190205 11 333 0.0 11.3 0.00 0.00 0.00 70 1017.0
20260505185705 11 333 4.8 11.3 0.00 0.00 0.00 70 1017.0
20260505185205 11 0 1.6 11.3 0.00 0.00 0.00 70 1017.0
20260505184705 11 30 1.6 11.3 0.00 0.00 0.00 70 1017.0
20260505184205 12 345 0.0 11.3 0.00 0.00 0.00 70 1016.9
20260505183704 12 340 6.4 9.7 0.00 0.00 0.00 70 1016.9
20260505183205 12 18 1.6 9.7 0.00 0.00 0.00 70 1016.9
20260505182704 12 28 3.2 11.3 0.00 0.00 0.00 69 1016.8
20260505182204 12 36 0.0 11.3 0.00 0.00 0.00 69 1016.9
20260505181204 12 352 4.8 11.3 0.00 0.00 0.00 69 1016.8
20260505180705 12 12 3.2 9.7 0.00 0.00 0.00 69 1016.8
20260505180204 12 354 6.4 11.3 0.00 0.00 0.00 70 1016.8
20260505175719 12 67 3.2 11.3 0.00 0.00 0.00 70 1016.9
20260505175205 12 57 0.0 11.3 0.00 0.00 0.00 70 1016.9
20260505174705 12 40 4.8 11.3 0.00 0.00 0.00 70 1016.9
20260505174204 12 14 3.2 12.9 0.00 0.00 0.00 70 1016.9
20260505173204 12 26 6.4 16.1 0.00 0.00 0.00 69 1016.9
20260505172704 12 358 3.2 16.1 0.00 0.00 0.00 69 1016.9
20260505172205 12 5 8.0 16.1 0.00 0.00 0.00 68 1016.9
20260505171204 12 337 11.3 12.9 0.00 0.00 0.00 69 1016.8
20260505170704 12 316 6.4 9.7 0.00 0.00 0.00 70 1016.9
20260505170204 12 21 0.0 9.7 0.00 0.00 0.00 69 1016.9
20260505165205 12 299 0.0 9.7 0.00 0.00 0.00 68 1016.9
20260505164705 12 277 0.0 9.7 0.00 0.00 0.00 69 1017.0
20260505163704 12 278 1.6 9.7 0.00 0.00 0.00 68 1016.9
20260505163204 12 298 4.8 8.0 0.00 0.00 0.00 67 1017.0
20260505162705 12 274 3.2 8.0 0.00 0.00 0.00 68 1016.9
20260505162205 12 305 3.2 9.7 0.00 0.00 0.00 68 1016.9
20260505161728 12 288 0.0 9.7 0.00 0.00 0.00 68 1017.0
20260505161205 12 286 0.0 9.7 0.00 0.00 0.00 68 1017.1
20260505160705 12 275 4.8 9.7 0.00 0.00 0.00 68 1017.1
20260505160204 12 295 0.0 6.4 0.00 0.00 0.00 68 1017.1
20260505153204 12 333 1.6 8.0 0.00 0.00 0.00 71 1017.2
20260505152204 11 8 0.0 9.7 0.00 0.00 0.00 71 1017.2
20260505151205 11 21 0.0 11.3 0.00 0.00 0.00 70 1017.1
20260505150705 11 21 3.2 11.3 0.00 0.00 0.00 70 1017.1
20260505150225 11 39 3.2 16.1 0.00 0.00 0.00 71 1017.0
20260505140204 13 299 0.0 12.9 0.00 0.00 0.00 68 1017.0
20260505130205 12 300 4.8 16.1 0.00 0.00 0.00 72 1017.6
20260505124704 12 7 0.0 12.9 0.00 0.00 0.00 71 1017.7
20260505124205 12 338 4.8 16.1 0.00 0.00 0.00 73 1017.7
20260505123704 12 23 6.4 16.1 0.00 0.00 0.00 73 1017.8
20260505123205 12 350 8.0 16.1 0.00 0.00 0.00 74 1017.8
20260505122704 11 340 8.0 14.5 0.00 0.00 0.00 75 1017.9
20260505122205 11 306 8.0 16.1 0.00 0.00 0.00 75 1017.9
20260505121704 11 310 6.4 16.1 0.00 0.00 0.00 76 1017.8
20260505121204 11 326 6.4 16.1 0.00 0.00 0.00 76 1017.9
20260505120704 11 277 3.2 14.5 0.00 0.00 0.00 76 1017.9
20260505115704 11 330 4.8 17.7 0.00 0.00 0.00 76 1018.0
20260505115205 11 323 8.0 20.9 0.00 0.00 0.00 76 1018.0
20260505114705 11 344 6.4 20.9 0.00 0.00 0.00 75 1018.0
20260505114204 11 270 9.7 20.9 0.00 0.00 0.00 74 1018.0
20260505113704 11 286 8.0 19.3 0.00 0.00 0.00 74 1018.0
20260505113205 11 295 16.1 16.1 0.00 0.00 0.00 73 1018.1
20260505112206 11 258 0.0 12.9 0.00 0.00 0.00 74 1018.1
20260505111704 11 331 0.0 12.9 0.00 0.00 0.00 74 1018.1
20260505111204 11 354 0.0 9.7 0.00 0.00 0.00 74 1018.2
20260505110704 11 281 0.0 9.7 0.00 0.00 0.00 74 1018.2
20260505110204 11 305 0.0 9.7 0.00 0.00 0.00 74 1018.3
20260505102205 11 316 3.2 14.5 0.00 0.00 0.00 76 1018.5
20260505101205 11 7 3.2 12.9 0.00 0.00 0.00 76 1018.6
20260505100705 11 267 8.0 11.3 0.00 0.00 0.00 77 1018.6
20260505095705 11 327 0.0 11.3 0.00 0.00 0.00 77 1018.7
20260505095204 11 337 6.4 11.3 0.00 0.00 0.00 78 1018.7
20260505094704 11 343 6.4 12.9 0.00 0.00 0.00 77 1018.7
20260505094204 11 327 6.4 12.9 0.00 0.00 0.00 77 1018.7
20260505093704 11 336 4.8 14.5 0.00 0.00 0.00 77 1018.7
20260505093204 11 317 4.8 14.5 0.00 0.00 0.00 77 1018.7
20260505092204 11 270 3.2 12.9 0.00 0.00 0.00 78 1018.7
20260505091704 11 307 6.4 14.5 0.00 0.00 0.00 78 1018.8
20260505091204 11 302 0.0 14.5 0.00 0.00 0.00 79 1018.9
20260505090704 10 19 6.4 14.5 0.00 0.00 0.00 81 1018.9
20260505090204 10 305 1.6 14.5 0.00 0.00 0.00 81 1019.0
20260505085705 10 253 0.0 14.5 0.00 0.00 0.00 79 1019.0
20260505085205 10 309 6.4 14.5 0.00 0.00 0.00 79 1019.1
20260505084204 10 322 6.4 17.7 0.00 0.00 0.00 82 1019.1
20260505083704 10 274 0.0 17.7 0.00 0.00 0.00 81 1019.2
20260505082705 10 343 12.9 14.5 0.00 0.00 0.00 84 1019.2
20260505082205 10 322 8.0 14.5 0.00 0.00 0.00 84 1019.2
20260505080205 10 320 3.2 14.5 0.00 0.00 0.00 86 1019.4
20260505075705 9 306 0.0 16.1 0.00 0.00 0.00 86 1019.4
20260505075204 9 306 8.0 16.1 0.00 0.00 0.00 86 1019.4
20260505074704 9 317 4.8 16.1 0.00 0.00 0.00 86 1019.4
20260505074205 9 326 3.2 14.5 0.00 0.00 0.00 87 1019.4
20260505073704 9 343 3.2 12.9 0.00 0.00 0.00 87 1019.5
20260505072705 8 298 3.2 9.7 0.00 0.00 0.00 89 1019.5
20260505072205 8 331 0.0 9.7 0.00 0.00 0.00 89 1019.6
20260505071704 8 279 0.0 9.7 0.00 0.00 0.00 89 1019.6
20260505071205 8 341 1.6 9.7 0.00 0.00 0.00 89 1019.6
20260505070705 8 319 1.6 9.7 0.00 0.00 0.00 90 1019.7
20260505065704 8 327 4.8 11.3 0.00 0.00 0.00 90 1019.7
20260505065205 8 331 0.0 11.3 0.00 0.00 0.00 90 1019.7
20260505064704 8 298 4.8 11.3 0.00 0.00 0.00 90 1019.7
20260505064205 8 288 0.0 11.3 0.00 0.00 0.00 90 1019.7
20260505063704 8 307 3.2 11.3 0.00 0.00 0.00 90 1019.8
20260505062704 8 336 3.2 8.0 0.00 0.00 0.00 90 1019.8
20260505062205 7 320 3.2 4.8 0.00 0.00 0.00 90 1019.8
20260505061705 7 305 0.0 4.8 0.00 0.00 0.00 90 1019.8
20260505061205 7 286 0.0 4.8 0.00 0.00 0.00 90 1019.8
20260505060704 7 286 0.0 6.4 0.00 0.00 0.00 90 1019.7
20260505060204 7 312 0.0 6.4 0.00 0.00 0.00 90 1019.7
20260505055704 7 315 0.0 8.0 0.00 0.00 0.00 90 1019.7
20260505055204 7 334 0.0 8.0 0.00 0.00 0.00 90 1019.7
20260505054704 7 313 0.0 9.7 0.00 0.00 0.00 90 1019.7
20260505054204 7 286 0.0 9.7 0.00 0.00 0.00 90 1019.7
20260505053704 7 300 0.0 9.7 0.00 0.00 0.00 90 1019.7
20260505053204 7 315 3.2 9.7 0.00 0.00 0.00 90 1019.7
20260505052705 7 324 3.2 8.0 0.00 0.00 0.00 90 1019.7
20260505052205 7 306 1.6 6.4 0.00 0.00 0.00 90 1019.6
20260505051705 7 331 0.0 6.4 0.00 0.00 0.00 90 1019.6
20260505051205 7 320 0.0 4.8 0.00 0.00 0.00 90 1019.5
20260505050704 7 286 1.6 6.4 0.00 0.00 0.00 90 1019.5
20260505041704 7 330 6.4 11.3 0.00 0.00 0.00 90 1019.5
20260505041205 7 324 1.6 9.7 0.00 0.00 0.00 90 1019.5
20260505040705 7 329 1.6 9.7 0.00 0.00 0.00 90 1019.5
20260505035704 7 320 3.2 9.7 0.00 0.00 0.00 90 1019.5
20260505035205 7 289 1.6 9.7 0.00 0.00 0.00 90 1019.5
20260505034205 7 310 3.2 8.0 0.00 0.00 0.00 92 1019.5
20260505033704 7 296 3.2 8.0 0.00 0.00 0.00 92 1019.5
20260505033204 7 330 0.0 8.0 0.00 0.00 0.00 92 1019.6
20260505032704 7 324 0.0 8.0 0.00 0.00 0.00 92 1019.6
20260505031705 7 289 3.2 9.7 0.00 0.00 0.00 92 1019.6
20260505031205 7 313 0.0 9.7 0.00 0.00 0.00 92 1019.5
20260505030204 7 320 3.2 9.7 0.00 0.00 0.00 92 1019.5
20260505025704 7 324 4.8 8.0 0.00 0.00 0.00 92 1019.4
20260505025205 7 324 3.2 9.7 0.00 0.00 0.00 92 1019.4
20260505024705 7 319 0.0 9.7 0.00 0.00 0.00 93 1019.4
20260505024204 7 320 0.0 9.7 0.00 0.00 0.00 93 1019.4
20260505023704 7 303 0.0 8.0 0.00 0.00 0.00 93 1019.5
20260505023205 7 333 1.6 8.0 0.00 0.00 0.00 93 1019.5
20260505022705 7 320 0.0 8.0 0.00 0.00 0.00 93 1019.5
20260505022204 7 327 0.0 0.0 0.00 0.00 0.00 94 1019.5
20260505021704 7 340 0.0 0.0 0.00 0.00 0.00 94 1019.5
20260505021204 7 340 0.0 0.0 0.00 0.00 0.00 94 1019.6
20260505020704 7 340 0.0 0.0 0.00 0.00 0.00 94 1019.6
20260505020205 7 340 0.0 4.8 0.00 0.00 0.00 94 1019.6
20260505015704 7 340 0.0 4.8 0.00 0.00 0.00 94 1019.6
20260505015205 7 340 0.0 4.8 0.00 0.00 0.00 95 1019.6
20260505014705 7 340 0.0 9.7 0.00 0.00 0.00 95 1019.7
20260505014205 7 340 0.0 9.7 0.00 0.00 0.00 95 1019.6
20260505013704 7 305 0.0 9.7 0.00 0.00 0.00 95 1019.8
20260505013204 6 315 0.0 6.4 0.00 0.00 0.00 95 1019.8
20260505012204 6 286 0.0 6.4 0.00 0.00 0.00 95 1019.8
20260505011705 6 302 1.6 6.4 0.00 0.00 0.00 95 1019.8
20260505011205 6 291 0.0 4.8 0.00 0.00 0.00 96 1019.8
20260505010204 6 313 1.6 4.8 0.00 0.00 0.00 96 1019.9
20260505005704 6 326 0.0 8.0 0.00 0.00 0.00 96 1019.9
20260505005205 6 305 0.0 9.7 0.00 0.00 0.00 96 1019.8
20260505004705 6 329 0.0 9.7 0.00 0.00 0.00 96 1019.9
20260505003704 6 2 3.2 9.7 0.00 0.00 0.00 96 1019.8
20260505003204 6 336 1.6 6.4 0.00 0.00 0.00 96 1019.8
20260505002705 6 313 0.0 6.4 0.00 0.00 0.00 95 1019.8
20260505002204 6 315 0.0 9.7 0.00 0.00 0.00 95 1019.8
20260505001704 6 344 1.6 9.7 0.00 0.00 0.00 95 1019.8
20260505000704 5 285 0.0 9.7 0.00 0.00 0.00 94 1019.9
20260504235705 5 313 3.2 8.0 0.00 0.00 0.00 93 1019.9
20260504234704 5 333 4.8 0.0 0.00 0.00 0.00 92 1019.9
20260504234204 5 350 0.0 8.0 0.00 0.00 0.00 92 1019.9
20260504233704 5 350 0.0 8.0 0.00 0.00 0.00 90 1019.8
20260504233205 5 350 0.0 8.0 0.00 0.00 0.00 90 1019.9
20260504232704 5 350 0.0 8.0 0.00 0.00 0.00 90 1019.8
20260504232204 5 352 0.0 8.0 0.00 0.00 0.00 90 1019.7
20260504231704 5 316 0.0 8.0 0.00 0.00 0.00 90 1019.6
20260504231204 5 341 6.4 8.0 0.00 0.00 0.00 89 1019.6
20260504230704 5 330 0.0 0.0 0.00 0.00 0.00 89 1019.6
20260504230205 5 337 0.0 3.2 0.00 0.00 0.00 89 1019.6
20260504225705 5 337 0.0 6.4 0.00 0.00 0.00 87 1019.5
20260504225204 5 337 0.0 6.4 0.00 0.00 0.00 87 1019.5
20260504224704 6 337 0.0 6.4 0.00 0.00 0.00 87 1019.5
20260504224204 6 317 0.0 6.4 0.00 0.00 0.00 87 1019.5
20260504223704 6 316 1.6 0.0 0.00 0.00 0.00 87 1019.4
20260504223220 6 331 0.0 0.0 0.00 0.00 0.00 87 1019.3
20260504222705 6 331 0.0 3.2 0.00 0.00 0.00 87 1019.3
20260504222204 6 331 0.0 3.2 0.00 0.00 0.00 87 1019.3
20260504221704 6 331 0.0 3.2 0.00 0.00 0.00 87 1019.4
20260504221204 7 331 0.0 3.2 0.00 0.00 0.00 87 1019.3
20260504220704 7 331 0.0 3.2 0.00 0.00 0.00 87 1019.3
20260504220230 7 355 0.0 0.0 0.00 0.00 0.00 86 1019.2
20260504215704 7 355 0.0 0.0 0.00 0.00 0.00 86 1019.2
20260504215205 7 355 0.0 4.8 0.00 0.00 0.00 86 1019.1
20260504213704 8 355 0.0 4.8 0.00 0.00 0.00 86 1019.1
20260504213205 8 326 0.0 0.0 0.00 0.00 0.00 86 1019.1
20260504212705 8 326 0.0 3.2 0.00 0.00 0.00 85 1019.1
20260504212205 8 326 0.0 3.2 0.00 0.00 0.00 85 1018.9
20260504211704 9 326 0.0 3.2 0.00 0.00 0.00 85 1018.9
20260504211205 9 326 0.0 3.2 0.00 0.00 0.00 85 1018.9
20260504210225 10 298 0.0 0.0 0.00 0.00 0.00 84 1018.9
20260504205705 10 298 0.0 0.0 0.00 0.00 0.00 84 1018.8
20260504205205 10 298 0.0 0.0 0.00 0.00 0.00 84 1018.7
20260504204705 10 298 0.0 0.0 0.00 0.00 0.00 85 1018.6
20260504204204 11 298 0.0 0.0 0.00 0.00 0.00 85 1018.6
20260504203204 11 298 0.0 0.0 0.00 0.00 0.00 84 1018.5
20260504202705 11 298 0.0 4.8 0.00 0.00 0.00 84 1018.4
20260504202205 11 298 0.0 4.8 0.00 0.00 0.00 84 1018.4
20260504201705 11 298 0.0 4.8 0.00 0.00 0.00 84 1018.3
20260504201205 11 298 0.0 4.8 0.00 0.00 0.00 84 1018.3
20260504200204 11 282 0.0 3.2 0.00 0.00 0.00 84 1018.2